Wind_Speed
11 10 11 11 11 11 10 10 9 9 9 9 9 8 9 9 9 9 9 8 7 7 6 6 6 5 5 5 5 5 5 5 5 4 4 4 4 4 4 4 4 3
11 11 11 11 11 11 11 10 9 9 9 9 9 10 10 10 9 8 8 8 8 7 7 7 6 6 6 6 6 6 6 6 6 5 5 5 4 4 4 4 4 4
13 12 12 11 11 11 11 10 10 10 9 9 10 10 10 9 8 8 8 8 8 8 8 8 7 7 7 7 7 7 7 7 6 6 6 5 5 5 5 5 4 4
15 14 13 13 12 11 11 10 10 10 10 10 10 10 10 9 8 8 8 8 8 8 8 8 8 8 8 7 7 7 7 7 6 6 5 5 5 5 5 5 5 5
17 15 15 14 13 12 12 12 11 11 11 10 10 10 10 9 9 9 9 9 9 9 9 9 9 9 8 8 8 7 7 7 6 6 5 5 5 5 6 6 7 7
19 18 16 15 14 14 14 13 12 11 10 10 10 10 10 10 10 10 10 10 10 10 10 10 10 9 9 8 8 8 8 7 7 6 6 6 6 6 7 8 8 8
21 20 18 17 16 15 15 14 13 12 11 10 10 10 10 10 10 10 10 10 11 11 12 11 11 10 9 9 9 8 8 7 7 7 7 7 8 8 9 9 9 8
23 22 20 19 17 17 16 16 14 13 12 11 11 11 10 10 10 10 10 11 11 12 12 12 11 11 11 10 10 9 8 8 8 8 8 9 10 10 10 9 8 8
25 24 22 21 19 18 18 18 17 15 14 13 12 12 11 11 11 11 11 12 12 13 13 13 12 12 12 11 10 10 9 9 9 9 10 11 11 11 11 10 9 8
26 25 24 23 21 21 20 20 19 18 16 15 15 14 13 13 12 13 13 13 13 13 14 13 13 13 13 12 11 11 11 11 11 10 11 12 12 12 12 11 10 9
29 27 26 25 24 23 23 22 21 20 19 18 17 16 15 14 14 14 14 15 15 14 14 14 14 14 14 14 14 13 13 13 12 12 12 13 14 13 12 10 11 11
31 30 28 27 27 26 26 25 23 22 22 21 20 19 18 17 16 16 15 16 16 16 15 15 15 16 16 16 16 16 15 14 14 14 15 16 16 14 12 11 12 13
31 32 31 30 30 29 29 28 26 25 24 23 22 22 21 20 19 18 17 17 17 17 17 17 17 18 18 18 18 17 17 16 16 17 18 19 18 15 13 14 15 14
32 33 33 33 32 32 31 30 28 27 26 25 24 24 23 22 21 20 19 19 18 18 17 17 18 19 19 19 19 18 18 18 19 20 21 21 20 16 15 17 16 16
34 34 34 34 34 33 32 31 30 29 28 27 26 26 25 24 23 22 22 21 21 20 19 18 19 19 20 20 19 19 19 19 21 22 22 22 21 19 18 18 18 19
36 35 34 34 34 33 33 32 32 31 30 29 28 27 26 25 25 24 24 24 24 23 22 21 21 21 21 21 21 20 20 21 22 23 23 23 22 21 20 19 19 21
35 37 35 34 34 33 33 33 33 33 32 31 30 29 28 27 27 27 27 27 27 27 25 24 23 23 23 23 23 23 23 23 24 24 24 24 24 24 23 21 21 22
31 35 36 36 34 34 34 34 34 34 34 33 32 31 31 31 30 30 30 30 30 29 29 28 26 26 26 27 26 26 25 25 25 25 25 26 26 27 26 25 24 24
27 30 34 36 36 35 35 36 36 35 35 35 35 34 34 33 33 33 33 32 32 32 32 32 30 29 30 30 29 29 28 28 28 27 27 28 28 29 28 27 26 26
27 28 30 34 36 37 38 38 37 37 37 37 37 36 35 35 35 36 35 34 34 34 35 35 33 33 33 32 32 32 31 30 30 29 30 30 30 29 29 29 28 28
29 29 29 30 33 38 41 41 40 39 38 38 37 37 37 36 36 37 37 37 36 36 36 36 35 36 36 35 35 34 33 32 32 32 32 32 31 31 31 31 31 30
31 31 31 31 32 36 41 43 42 40 39 37 37 37 37 37 37 37 37 38 37 37 37 36 36 38 38 37 37 36 35 34 34 34 34 33 33 33 32 32 32 30
32 32 33 34 34 35 39 43 45 43 40 39 38 37 37 37 37 37 37 37 37 38 37 35 36 38 39 39 39 38 37 36 35 35 35 35 35 34 33 33 33 31
33 34 35 35 35 36 38 43 46 45 42 40 40 39 38 38 38 37 37 38 38 39 39 37 38 40 40 40 40 40 39 38 37 36 36 36 36 35 35 34 33 32
33 34 35 34 34 36 39 42 45 45 42 41 41 41 40 38 38 38 39 40 40 41 41 40 41 43 43 42 42 42 41 39 38 37 37 36 36 37 37 36 35 34
31 32 32 33 34 35 38 41 43 42 40 40 41 41 41 40 40 41 41 42 42 43 43 43 43 45 45 45 44 44 42 41 40 39 39 38 38 39 39 38 37 37
Wind_Direction
197 191 185 181 182 184 188 191 192 192 192 189 186 184 187 191 193 192 190 190 189 189 190 191 195 198 194 192 193 196 201 206 207 207 206 202 201 203 205 206 208 214
210 206 200 194 192 194 196 198 199 199 199 196 195 195 199 203 202 200 200 200 199 199 200 201 204 204 201 200 199 203 209 215 216 218 222 219 215 212 207 202 201 211
217 217 215 210 206 204 204 204 204 204 204 203 203 205 209 212 211 209 210 210 209 209 209 209 211 211 209 208 208 210 216 221 222 225 229 228 224 218 211 210 213 221
220 223 224 222 218 215 212 212 210 209 209 208 208 211 214 217 217 218 219 219 218 219 219 217 217 215 213 213 216 220 225 231 233 234 236 236 233 226 222 224 230 236
220 225 229 228 226 221 218 218 217 217 216 213 213 214 215 216 216 218 222 222 223 224 224 224 222 219 216 216 219 225 229 235 240 241 241 242 241 238 235 237 240 244
219 223 227 230 229 227 224 221 220 222 221 218 218 218 218 218 216 217 220 220 221 223 225 225 224 222 220 216 217 221 224 228 235 239 241 244 245 244 245 244 246 249
223 221 223 226 228 229 230 228 224 223 223 223 222 222 221 220 219 219 220 220 220 222 223 222 221 219 217 214 212 216 221 226 233 239 243 247 247 248 250 252 255 259
228 225 222 222 224 226 229 231 230 227 225 225 227 227 224 222 222 221 221 222 221 220 219 217 216 214 213 212 212 216 225 233 240 246 250 252 253 253 254 257 262 264
230 229 227 224 222 223 226 229 230 230 228 227 229 231 230 227 225 223 223 223 222 220 219 216 213 213 215 217 217 223 232 238 244 249 254 258 260 261 262 264 265 269
231 231 230 228 225 224 226 227 229 230 229 228 228 231 232 231 228 226 226 226 224 222 221 220 217 217 221 225 228 234 241 244 248 253 258 262 264 265 267 271 278 286
233 232 231 231 230 227 227 227 229 230 231 231 231 231 232 232 232 231 230 230 229 226 224 224 224 226 230 234 238 243 249 253 259 263 266 266 266 267 271 277 282 281
233 233 232 232 232 231 229 227 227 229 231 232 233 234 234 234 233 232 233 233 233 231 229 228 230 234 238 242 245 249 254 259 264 267 266 265 266 269 274 273 266 264
233 232 232 232 232 233 233 231 229 228 229 231 233 235 236 237 237 236 236 237 237 235 234 233 234 237 240 243 247 252 257 261 264 265 265 265 267 269 269 266 264 265
234 233 231 232 232 233 235 236 235 233 231 231 232 234 236 238 240 241 241 243 243 242 240 239 240 241 243 245 247 252 256 259 260 261 262 264 266 265 262 264 269 271
233 233 232 232 233 234 235 237 238 239 237 235 234 234 236 238 240 242 244 245 247 247 246 245 245 247 248 250 251 252 253 255 257 259 260 261 263 262 260 262 265 266
232 233 233 233 233 235 237 238 239 240 241 240 239 238 238 240 242 244 246 247 248 249 248 248 249 250 252 253 253 253 252 253 255 257 259 260 261 261 261 261 261 263
234 232 232 234 234 235 237 238 240 241 241 242 243 242 242 242 242 243 246 248 249 251 251 251 251 252 254 255 255 256 256 255 255 256 258 259 260 261 262 262 261 262
239 234 233 233 234 235 236 237 239 240 241 242 243 244 244 244 243 243 244 247 249 251 253 253 252 253 254 256 257 257 257 258 258 258 259 259 258 259 260 262 262 263
243 238 235 235 235 236 237 237 238 240 241 241 241 241 242 244 245 245 245 246 248 251 252 252 252 253 253 254 256 257 257 258 259 258 258 258 258 258 259 260 262 263
243 241 239 238 238 237 237 237 237 238 240 240 240 240 241 242 244 246 247 247 248 249 251 253 253 253 253 253 254 256 256 258 258 258 257 257 257 258 258 258 259 261
242 243 243 243 242 240 238 237 236 237 238 239 240 241 242 243 244 246 247 248 248 249 251 253 254 254 254 254 254 255 256 257 258 258 257 257 257 257 258 258 258 260
239 242 244 246 247 245 241 237 236 236 237 237 239 241 242 243 244 245 247 248 249 249 251 253 255 256 255 255 254 254 255 256 257 258 258 258 258 257 258 259 259 262
237 240 242 245 248 248 244 238 235 235 236 236 238 241 242 243 244 244 247 248 248 249 249 251 255 257 257 256 256 255 254 253 254 256 258 259 259 259 260 260 261 264
237 239 242 244 247 248 245 238 234 234 235 235 237 240 243 245 246 246 247 248 248 249 250 250 253 255 256 256 256 255 254 253 253 254 256 258 260 261 261 262 263 266
241 241 243 245 247 248 244 237 232 233 235 237 238 241 244 246 248 249 250 250 249 250 252 253 254 255 255 254 254 254 254 254 254 254 255 257 259 260 261 263 265 267
243 244 245 246 247 247 242 236 231 232 236 238 239 242 245 248 250 251 251 251 250 251 254 255 255 256 256 254 253 252 251 251 252 253 254 255 256 257 260 263 265 266
Height
5901 5901 5901 5902 5903 5904 5905 5905 5906 5907 5907 5908 5909 5909 5910 5910 5911 5912 5912 5913 5913 5914 5914 5915 5916 5916 5916 5916 5917 5917 5917 5917 5918 5918 5918 5918 5918 5919 5919 5919 5920 5920
5901 5901 5901 5901 5902 5903 5904 5904 5905 5906 5907 5907 5908 5908 5909 5909 5910 5910 5911 5912 5913 5913 5914 5914 5915 5915 5915 5916 5916 5916 5916 5916 5917 5917 5917 5918 5918 5918 5919 5919 5919 5919
5900 5901 5901 5901 5902 5902 5903 5904 5904 5905 5906 5906 5907 5907 5908 5908 5909 5910 5910 5911 5912 5912 5913 5913 5914 5914 5915 5915 5915 5915 5916 5916 5916 5916 5917 5917 5918 5918 5918 5919 5919 5919
5899 5900 5901 5902 5902 5902 5903 5903 5904 5904 5905 5905 5906 5907 5907 5908 5909 5909 5910 5910 5911 5911 5912 5912 5913 5913 5914 5914 5915 5915 5915 5915 5916 5916 5917 5917 5918 5918 5918 5918 5918 5918
5897 5899 5900 5901 5902 5902 5902 5903 5903 5904 5904 5905 5905 5906 5906 5907 5908 5908 5909 5909 5909 5910 5911 5911 5912 5912 5913 5913 5914 5914 5915 5915 5916 5916 5917 5917 5918 5918 5918 5918 5918 5918
5896 5897 5898 5900 5901 5902 5902 5902 5903 5903 5904 5904 5905 5905 5906 5906 5907 5907 5907 5908 5908 5909 5909 5910 5911 5911 5912 5913 5913 5914 5914 5915 5915 5916 5916 5917 5917 5917 5917 5917 5917 5917
5895 5895 5897 5898 5899 5900 5901 5902 5902 5903 5903 5904 5904 5904 5905 5905 5906 5906 5906 5907 5907 5908 5908 5909 5910 5911 5911 5912 5913 5913 5914 5914 5915 5915 5916 5916 5916 5916 5916 5916 5916 5916
5893 5894 5895 5897 5898 5899 5899 5900 5901 5902 5902 5903 5903 5904 5904 5904 5905 5905 5905 5906 5906 5907 5907 5908 5909 5910 5910 5911 5912 5913 5913 5914 5914 5915 5915 5915 5915 5915 5915 5915 5916 5916
5892 5893 5894 5895 5896 5897 5897 5898 5899 5901 5901 5902 5903 5903 5903 5903 5904 5905 5905 5905 5906 5906 5907 5907 5908 5909 5910 5910 5911 5912 5912 5913 5913 5914 5914 5914 5914 5914 5914 5914 5915 5916
5890 5891 5893 5894 5894 5895 5896 5896 5897 5899 5900 5901 5901 5901 5902 5902 5903 5904 5904 5905 5905 5906 5906 5907 5908 5908 5909 5909 5910 5911 5911 5912 5912 5913 5913 5913 5913 5913 5913 5914 5915 5916
5888 5889 5890 5892 5893 5893 5894 5894 5895 5897 5898 5899 5899 5900 5900 5901 5902 5902 5903 5904 5905 5905 5906 5906 5907 5908 5908 5908 5909 5909 5910 5910 5911 5911 5911 5911 5911 5911 5913 5914 5915 5915
5885 5886 5888 5889 5890 5891 5891 5892 5893 5895 5896 5897 5898 5898 5899 5899 5900 5901 5901 5902 5903 5904 5905 5905 5906 5907 5907 5907 5907 5908 5908 5909 5909 5909 5909 5909 5909 5910 5912 5913 5912 5912
5882 5883 5885 5886 5887 5888 5889 5890 5891 5892 5894 5895 5896 5897 5898 5898 5898 5899 5900 5901 5901 5902 5903 5903 5904 5905 5905 5906 5906 5907 5907 5908 5908 5907 5907 5907 5907 5910 5911 5910 5909 5910
5878 5880 5881 5883 5884 5885 5887 5888 5890 5891 5892 5893 5894 5895 5895 5896 5897 5898 5899 5899 5900 5900 5901 5902 5902 5902 5903 5903 5904 5905 5906 5906 5906 5905 5905 5905 5906 5908 5909 5908 5908 5909
5874 5876 5878 5879 5881 5883 5885 5886 5888 5889 5890 5891 5892 5892 5893 5894 5895 5896 5897 5898 5898 5898 5899 5899 5900 5900 5901 5901 5902 5903 5903 5904 5903 5903 5903 5903 5904 5906 5907 5907 5907 5907
5870 5872 5874 5876 5878 5880 5882 5884 5885 5886 5887 5888 5889 5890 5891 5892 5893 5894 5895 5896 5896 5896 5896 5897 5898 5898 5899 5900 5900 5900 5901 5901 5901 5900 5900 5901 5902 5903 5904 5905 5905 5904
5866 5868 5871 5873 5875 5877 5879 5880 5881 5882 5884 5885 5887 5888 5889 5890 5891 5892 5892 5893 5893 5894 5894 5895 5896 5897 5897 5897 5898 5898 5898 5898 5898 5898 5898 5898 5899 5899 5900 5902 5902 5901
5862 5865 5867 5869 5871 5873 5874 5876 5877 5878 5880 5881 5883 5885 5886 5887 5888 5888 5889 5889 5890 5891 5892 5892 5893 5894 5894 5894 5895 5895 5895 5895 5896 5896 5896 5896 5895 5896 5896 5898 5898 5898
5859 5861 5863 5865 5867 5869 5870 5871 5873 5875 5876 5877 5879 5880 5881 5883 5884 5885 5885 5886 5886 5887 5888 5888 5890 5891 5890 5891 5891 5892 5892 5893 5893 5893 5893 5892 5892 5892 5893 5894 5895 5895
5856 5857 5859 5861 5863 5864 5865 5866 5868 5870 5871 5872 5874 5875 5877 5879 5880 5880 5881 5882 5882 5883 5883 5884 5887 5887 5887 5887 5888 5888 5889 5889 5890 5890 5890 5889 5889 5889 5890 5890 5891 5891
5852 5854 5855 5857 5858 5859 5860 5861 5863 5865 5866 5868 5870 5872 5873 5874 5875 5876 5877 5877 5878 5878 5879 5881 5883 5883 5883 5884 5884 5884 5885 5885 5886 5886 5886 5886 5886 5886 5886 5886 5886 5887
5848 5850 5851 5852 5853 5854 5855 5857 5859 5860 5862 5864 5866 5867 5868 5869 5870 5871 5872 5873 5874 5874 5875 5878 5879 5879 5880 5881 5880 5881 5881 5882 5882 5882 5882 5882 5882 5882 5883 5882 5883 5883
5844 5846 5847 5847 5848 5849 5850 5852 5854 5855 5857 5860 5861 5862 5863 5865 5865 5866 5867 5868 5869 5869 5870 5874 5875 5874 5875 5876 5876 5877 5878 5877 5878 5878 5878 5878 5878 5878 5879 5879 5879 5880
5839 5841 5841 5842 5843 5844 5845 5846 5848 5850 5852 5855 5857 5858 5859 5860 5861 5862 5863 5864 5864 5864 5866 5869 5870 5869 5870 5871 5872 5872 5873 5873 5874 5874 5874 5874 5875 5875 5875 5875 5876 5877
5835 5835 5836 5838 5838 5838 5839 5841 5843 5845 5848 5851 5852 5852 5854 5855 5857 5858 5859 5859 5860 5860 5861 5864 5865 5864 5864 5866 5867 5867 5868 5869 5869 5869 5870 5871 5871 5871 5871 5872 5873 5873
5831 5831 5832 5833 5833 5834 5835 5837 5839 5842 5844 5846 5847 5848 5849 5851 5853 5853 5854 5854 5855 5856 5856 5858 5859 5859 5859 5860 5861 5861 5862 5863 5864 5864 5865 5866 5866 5866 5867 5868 5869 5869